Powrót do katalogu

SL-8 DEB

AktywnyLEO
NORAD 21711·DEBRIS·🇷🇺 Russia

Wystrzelony Jun 11, 1991 z Plesetsk Cosmodrome

Loading…

Następne Przeloty (najbliższe 24 godziny)

TLE

ŚwieżeSource: Space-Track

Epoka: Sep 13, 2026, 12:25 UTC

1 21711U 91041D   26256.51773782  .00000838  00000-0  20327-3 0  9994
2 21711  74.0149 273.1867 0010933  24.4482 129.4271 14.54477593853677

Śledź SL-8 DEB w czasie rzeczywistym z AllMySat

Download on the App Store